| time (UTC) | temp C | wind direction | speed KPH | gust KPH | rain 1hr cm | rain 24hr cm | rain mn cm | humidity % | barometer mb |
| 20260906133149 | 22 | 75 | 1.6 | 0.0 | 0.00 | 0.00 | 0.00 | 48 | 1023.7 |
| 20260906132651 | 22 | 79 | 3.2 | 0.0 | 0.00 | 0.00 | 0.00 | 46 | 1023.8 |
| 20260906132159 | 22 | 360 | 1.6 | 0.0 | 0.00 | 0.00 | 0.00 | 47 | 1023.8 |
| 20260906131643 | 22 | 32 | 1.6 | 0.0 | 0.00 | 0.00 | 0.00 | 43 | 1023.8 |
| 20260906131148 | 22 | 360 | 1.6 | 0.0 | 0.00 | 0.00 | 0.00 | 44 | 1023.8 |
| 20260906130659 | 22 | 63 | 0.0 | 0.0 | 0.00 | 0.00 | 0.00 | 45 | 1023.8 |
| 20260906130156 | 22 | 14 | 1.6 | 0.0 | 0.00 | 0.00 | 0.00 | 45 | 1023.8 |
| 20260906125644 | 22 | 64 | 3.2 | 0.0 | 0.00 | 0.00 | 0.00 | 47 | 1023.8 |
| 20260906125151 | 22 | 98 | 3.2 | 0.0 | 0.00 | 0.00 | 0.00 | 45 | 1023.8 |
| 20260906124642 | 22 | 89 | 1.6 | 0.0 | 0.00 | 0.00 | 0.00 | 46 | 1023.8 |
| 20260906124151 | 22 | 36 | 1.6 | 0.0 | 0.00 | 0.00 | 0.00 | 46 | 1023.9 |
| 20260906123657 | 22 | 68 | 1.6 | 0.0 | 0.00 | 0.00 | 0.00 | 47 | 1023.9 |
| 20260906123202 | 22 | 30 | 1.6 | 0.0 | 0.00 | 0.00 | 0.00 | 48 | 1023.9 |
| 20260906122658 | 22 | 345 | 3.2 | 0.0 | 0.00 | 0.00 | 0.00 | 46 | 1024.1 |
| 20260906122158 | 22 | 67 | 1.6 | 0.0 | 0.00 | 0.00 | 0.00 | 48 | 1024.1 |
| 20260906121703 | 22 | 12 | 1.6 | 0.0 | 0.00 | 0.00 | 0.00 | 48 | 1024.1 |
| 20260906121146 | 22 | 71 | 1.6 | 0.0 | 0.00 | 0.00 | 0.00 | 49 | 1024.2 |
| 20260906120646 | 22 | 5 | 3.2 | 0.0 | 0.00 | 0.00 | 0.00 | 47 | 1024.2 |
| 20260906120148 | 22 | 101 | 3.2 | 0.0 | 0.00 | 0.00 | 0.00 | 46 | 1024.2 |
| 20260906115656 | 22 | 360 | 3.2 | 0.0 | 0.00 | 0.00 | 0.00 | 47 | 1024.2 |
| 20260906115155 | 22 | 64 | 1.6 | 0.0 | 0.00 | 0.00 | 0.00 | 50 | 1024.2 |
| 20260906114657 | 22 | 355 | 3.2 | 0.0 | 0.00 | 0.00 | 0.00 | 49 | 1024.2 |
| 20260906114149 | 22 | 360 | 3.2 | 0.0 | 0.00 | 0.00 | 0.00 | 49 | 1024.3 |
| 20260906113659 | 22 | 71 | 1.6 | 0.0 | 0.00 | 0.00 | 0.00 | 48 | 1024.3 |
| 20260906113202 | 22 | 94 | 1.6 | 0.0 | 0.00 | 0.00 | 0.00 | 49 | 1024.3 |
| 20260906112647 | 21 | 88 | 1.6 | 0.0 | 0.00 | 0.00 | 0.00 | 48 | 1024.5 |
| 20260906112156 | 21 | 87 | 1.6 | 0.0 | 0.00 | 0.00 | 0.00 | 48 | 1024.5 |
| 20260906111655 | 21 | 104 | 3.2 | 0.0 | 0.00 | 0.00 | 0.00 | 48 | 1024.5 |
| 20260906111153 | 21 | 40 | 3.2 | 0.0 | 0.00 | 0.00 | 0.00 | 50 | 1024.4 |
| 20260906110702 | 21 | 360 | 1.6 | 0.0 | 0.00 | 0.00 | 0.00 | 50 | 1024.4 |
| 20260906110145 | 21 | 43 | 1.6 | 0.0 | 0.00 | 0.00 | 0.00 | 51 | 1024.7 |
| 20260906105647 | 21 | 360 | 3.2 | 0.0 | 0.00 | 0.00 | 0.00 | 51 | 1024.7 |
| 20260906105156 | 21 | 45 | 3.2 | 0.0 | 0.00 | 0.00 | 0.00 | 51 | 1024.7 |
| 20260906104658 | 21 | 17 | 1.6 | 0.0 | 0.00 | 0.00 | 0.00 | 52 | 1024.7 |
| 20260906104201 | 21 | 5 | 1.6 | 0.0 | 0.00 | 0.00 | 0.00 | 51 | 1024.8 |
| 20260906103642 | 21 | 33 | 3.2 | 0.0 | 0.00 | 0.00 | 0.00 | 51 | 1024.8 |
| 20260906103153 | 21 | 47 | 1.6 | 0.0 | 0.00 | 0.00 | 0.00 | 54 | 1024.8 |
| 20260906102652 | 21 | 360 | 0.0 | 0.0 | 0.00 | 0.00 | 0.00 | 56 | 1024.9 |
| 20260906102155 | 21 | 48 | 1.6 | 0.0 | 0.00 | 0.00 | 0.00 | 55 | 1024.9 |
| 20260906101704 | 21 | 101 | 1.6 | 0.0 | 0.00 | 0.00 | 0.00 | 56 | 1024.9 |
| 20260906101151 | 21 | 74 | 1.6 | 0.0 | 0.00 | 0.00 | 0.00 | 55 | 1025.0 |
| 20260906100655 | 20 | 106 | 1.6 | 0.0 | 0.00 | 0.00 | 0.00 | 58 | 1025.0 |
| 20260906100145 | 20 | 91 | 1.6 | 0.0 | 0.00 | 0.00 | 0.00 | 56 | 1025.0 |
| 20260906095650 | 20 | 61 | 1.6 | 0.0 | 0.00 | 0.00 | 0.00 | 58 | 1025.4 |
| 20260906095156 | 20 | 69 | 1.6 | 0.0 | 0.00 | 0.00 | 0.00 | 57 | 1025.4 |
| 20260906094659 | 20 | 121 | 1.6 | 0.0 | 0.00 | 0.00 | 0.00 | 60 | 1025.4 |
| 20260906094147 | 20 | 74 | 1.6 | 0.0 | 0.00 | 0.00 | 0.00 | 60 | 1025.4 |
| 20260906093651 | 20 | 65 | 1.6 | 0.0 | 0.00 | 0.00 | 0.00 | 60 | 1025.4 |
| 20260906093154 | 20 | 63 | 3.2 | 0.0 | 0.00 | 0.00 | 0.00 | 60 | 1025.4 |
| 20260906092700 | 19 | 101 | 3.2 | 0.0 | 0.00 | 0.00 | 0.00 | 59 | 1025.5 |
| 20260906092202 | 19 | 107 | 1.6 | 0.0 | 0.00 | 0.00 | 0.00 | 61 | 1025.5 |
| 20260906091654 | 19 | 49 | 1.6 | 0.0 | 0.00 | 0.00 | 0.00 | 60 | 1025.5 |
| 20260906091202 | 18 | 55 | 0.0 | 0.0 | 0.00 | 0.00 | 0.00 | 63 | 1025.6 |
| 20260906090653 | 18 | 9 | 0.0 | 0.0 | 0.00 | 0.00 | 0.00 | 62 | 1025.6 |
| 20260906090153 | 18 | 94 | 1.6 | 0.0 | 0.00 | 0.00 | 0.00 | 60 | 1025.6 |
| 20260906085659 | 18 | 360 | 1.6 | 0.0 | 0.00 | 0.00 | 0.00 | 62 | 1025.5 |
| 20260906085150 | 18 | 36 | 1.6 | 0.0 | 0.00 | 0.00 | 0.00 | 63 | 1025.5 |
| 20260906084652 | 18 | 88 | 1.6 | 0.0 | 0.00 | 0.00 | 0.00 | 63 | 1025.5 |
| 20260906084153 | 17 | 360 | 1.6 | 0.0 | 0.00 | 0.00 | 0.00 | 64 | 1024.8 |
| 20260906083644 | 17 | 360 | 3.2 | 0.0 | 0.00 | 0.00 | 0.00 | 64 | 1024.8 |
| 20260906083151 | 17 | 87 | 1.6 | 0.0 | 0.00 | 0.00 | 0.00 | 66 | 1024.8 |
| 20260906082656 | 17 | 53 | 1.6 | 0.0 | 0.00 | 0.00 | 0.00 | 66 | 1024.7 |
| 20260906082159 | 17 | 67 | 1.6 | 0.0 | 0.00 | 0.00 | 0.00 | 66 | 1024.7 |
| 20260906081704 | 17 | 30 | 1.6 | 0.0 | 0.00 | 0.00 | 0.00 | 67 | 1024.7 |
| 20260906081200 | 17 | 82 | 3.2 | 0.0 | 0.00 | 0.00 | 0.00 | 65 | 1025.5 |
| 20260906080659 | 16 | 80 | 3.2 | 0.0 | 0.00 | 0.00 | 0.00 | 67 | 1025.5 |
| 20260906080201 | 16 | 360 | 4.8 | 0.0 | 0.00 | 0.00 | 0.00 | 68 | 1025.5 |
| 20260906075703 | 16 | 67 | 3.2 | 0.0 | 0.00 | 0.00 | 0.00 | 70 | 1024.7 |
| 20260906075147 | 16 | 39 | 1.6 | 0.0 | 0.00 | 0.00 | 0.00 | 73 | 1024.7 |
| 20260906074653 | 16 | 89 | 1.6 | 0.0 | 0.00 | 0.00 | 0.00 | 74 | 1024.7 |
| 20260906074204 | 16 | 40 | 1.6 | 0.0 | 0.00 | 0.00 | 0.00 | 73 | 1024.6 |
| 20260906073704 | 15 | 53 | 1.6 | 0.0 | 0.00 | 0.00 | 0.00 | 76 | 1024.6 |
| 20260906073148 | 15 | 46 | 0.0 | 0.0 | 0.00 | 0.00 | 0.00 | 78 | 1024.6 |
| 20260906072655 | 15 | 59 | 0.0 | 0.0 | 0.00 | 0.00 | 0.00 | 78 | 1024.8 |
| 20260906072154 | 15 | 64 | 0.0 | 0.0 | 0.00 | 0.00 | 0.00 | 80 | 1024.8 |
| 20260906071659 | 14 | 64 | 0.0 | 0.0 | 0.00 | 0.00 | 0.00 | 80 | 1024.8 |
| 20260906071200 | 14 | 82 | 0.0 | 0.0 | 0.00 | 0.00 | 0.00 | 83 | 1024.8 |
| 20260906070702 | 13 | 360 | 0.0 | 0.0 | 0.00 | 0.00 | 0.00 | 84 | 1024.8 |
| 20260906070159 | 13 | 80 | 0.0 | 0.0 | 0.00 | 0.00 | 0.00 | 86 | 1024.8 |
| 20260906065657 | 13 | 123 | 0.0 | 0.0 | 0.00 | 0.00 | 0.00 | 87 | 1025.0 |
| 20260906065145 | 13 | 181 | 0.0 | 0.0 | 0.00 | 0.00 | 0.00 | 87 | 1025.0 |
| 20260906064647 | 12 | 261 | 0.0 | 0.0 | 0.00 | 0.00 | 0.00 | 87 | 1025.0 |
| 20260906064150 | 12 | 261 | 0.0 | 0.0 | 0.00 | 0.00 | 0.00 | 87 | 1024.9 |
| 20260906063659 | 12 | 261 | 0.0 | 0.0 | 0.00 | 0.00 | 0.00 | 87 | 1024.9 |
| 20260906063204 | 12 | 261 | 0.0 | 0.0 | 0.00 | 0.00 | 0.00 | 87 | 1024.9 |
| 20260906062705 | 11 | 360 | 0.0 | 0.0 | 0.00 | 0.00 | 0.00 | 87 | 1024.9 |
| 20260906062146 | 11 | 261 | 0.0 | 0.0 | 0.00 | 0.00 | 0.00 | 87 | 1024.9 |
| 20260906061653 | 11 | 261 | 0.0 | 0.0 | 0.00 | 0.00 | 0.00 | 87 | 1024.9 |
| 20260906061152 | 11 | 261 | 0.0 | 0.0 | 0.00 | 0.00 | 0.00 | 86 | 1025.0 |
| 20260906060657 | 10 | 261 | 0.0 | 0.0 | 0.00 | 0.00 | 0.00 | 85 | 1025.0 |
| 20260906060202 | 9 | 261 | 0.0 | 0.0 | 0.00 | 0.00 | 0.00 | 85 | 1025.0 |
| 20260906055702 | 9 | 261 | 0.0 | 0.0 | 0.00 | 0.00 | 0.00 | 84 | 1025.3 |
| 20260906055158 | 9 | 261 | 0.0 | 0.0 | 0.00 | 0.00 | 0.00 | 84 | 1025.3 |
| 20260906054700 | 9 | 261 | 0.0 | 0.0 | 0.00 | 0.00 | 0.00 | 83 | 1025.3 |
| 20260906054151 | 8 | 261 | 0.0 | 0.0 | 0.00 | 0.00 | 0.00 | 83 | 1025.1 |
| 20260906053650 | 8 | 261 | 0.0 | 0.0 | 0.00 | 0.00 | 0.00 | 83 | 1025.1 |
| 20260906053153 | 8 | 261 | 0.0 | 0.0 | 0.00 | 0.00 | 0.00 | 83 | 1025.1 |
| 20260906052655 | 8 | 261 | 0.0 | 0.0 | 0.00 | 0.00 | 0.00 | 82 | 1025.2 |
| 20260906052154 | 8 | 261 | 0.0 | 0.0 | 0.00 | 0.00 | 0.00 | 82 | 1025.2 |
| 20260906051657 | 8 | 261 | 0.0 | 0.0 | 0.00 | 0.00 | 0.00 | 82 | 1025.2 |
| 20260906051148 | 9 | 261 | 0.0 | 0.0 | 0.00 | 0.00 | 0.00 | 82 | 1024.9 |
| 20260906050651 | 9 | 261 | 0.0 | 0.0 | 0.00 | 0.00 | 0.00 | 82 | 1024.9 |
| 20260906050156 | 9 | 261 | 0.0 | 0.0 | 0.00 | 0.00 | 0.00 | 82 | 1024.9 |
| 20260906045700 | 9 | 261 | 0.0 | 0.0 | 0.00 | 0.00 | 0.00 | 82 | 1024.9 |
| 20260906045149 | 9 | 261 | 0.0 | 0.0 | 0.00 | 0.00 | 0.00 | 82 | 1024.9 |
| 20260906044650 | 9 | 261 | 0.0 | 0.0 | 0.00 | 0.00 | 0.00 | 82 | 1024.9 |
| 20260906044150 | 9 | 261 | 0.0 | 0.0 | 0.00 | 0.00 | 0.00 | 82 | 1024.7 |
| 20260906043658 | 9 | 261 | 0.0 | 0.0 | 0.00 | 0.00 | 0.00 | 82 | 1024.7 |
| 20260906043203 | 9 | 261 | 0.0 | 0.0 | 0.00 | 0.00 | 0.00 | 82 | 1024.7 |
| 20260906042704 | 9 | 261 | 0.0 | 0.0 | 0.00 | 0.00 | 0.00 | 82 | 1024.6 |
| 20260906042144 | 9 | 261 | 0.0 | 0.0 | 0.00 | 0.00 | 0.00 | 82 | 1024.6 |
| 20260906041646 | 10 | 261 | 0.0 | 0.0 | 0.00 | 0.00 | 0.00 | 82 | 1024.6 |
| 20260906041148 | 10 | 261 | 0.0 | 0.0 | 0.00 | 0.00 | 0.00 | 82 | 1024.2 |
| 20260906040649 | 10 | 261 | 0.0 | 0.0 | 0.00 | 0.00 | 0.00 | 82 | 1024.2 |
| 20260906040154 | 10 | 261 | 0.0 | 0.0 | 0.00 | 0.00 | 0.00 | 82 | 1024.2 |
| 20260906035659 | 10 | 360 | 0.0 | 0.0 | 0.00 | 0.00 | 0.00 | 82 | 1024.2 |
| 20260906035148 | 10 | 261 | 0.0 | 0.0 | 0.00 | 0.00 | 0.00 | 82 | 1024.2 |
| 20260906034657 | 10 | 360 | 0.0 | 0.0 | 0.00 | 0.00 | 0.00 | 82 | 1024.2 |
| 20260906034142 | 10 | 261 | 0.0 | 0.0 | 0.00 | 0.00 | 0.00 | 82 | 1024.2 |
| 20260906033653 | 10 | 261 | 0.0 | 0.0 | 0.00 | 0.00 | 0.00 | 82 | 1024.2 |
| 20260906033158 | 10 | 261 | 0.0 | 0.0 | 0.00 | 0.00 | 0.00 | 82 | 1024.2 |
| 20260906032643 | 10 | 261 | 0.0 | 0.0 | 0.00 | 0.00 | 0.00 | 82 | 1024.2 |
| 20260906032151 | 10 | 261 | 0.0 | 0.0 | 0.00 | 0.00 | 0.00 | 82 | 1024.2 |
| 20260906031700 | 10 | 261 | 0.0 | 0.0 | 0.00 | 0.00 | 0.00 | 82 | 1024.2 |
| 20260906031158 | 10 | 360 | 0.0 | 0.0 | 0.00 | 0.00 | 0.00 | 82 | 1024.9 |
| 20260906030658 | 10 | 261 | 0.0 | 0.0 | 0.00 | 0.00 | 0.00 | 82 | 1024.9 |
| 20260906030201 | 10 | 261 | 0.0 | 0.0 | 0.00 | 0.00 | 0.00 | 81 | 1024.9 |
| 20260906025646 | 10 | 261 | 0.0 | 0.0 | 0.00 | 0.00 | 0.00 | 81 | 1023.9 |
| 20260906025145 | 10 | 261 | 0.0 | 0.0 | 0.00 | 0.00 | 0.00 | 81 | 1023.9 |
| 20260906024651 | 10 | 360 | 0.0 | 0.0 | 0.00 | 0.00 | 0.00 | 81 | 1023.9 |
| 20260906024154 | 11 | 360 | 0.0 | 0.0 | 0.00 | 0.00 | 0.00 | 81 | 1024.8 |
| 20260906023702 | 11 | 360 | 0.0 | 0.0 | 0.00 | 0.00 | 0.00 | 81 | 1024.8 |
| 20260906023203 | 11 | 261 | 0.0 | 0.0 | 0.00 | 0.00 | 0.00 | 81 | 1024.8 |
| 20260906022645 | 11 | 261 | 0.0 | 0.0 | 0.00 | 0.00 | 0.00 | 81 | 1024.8 |
| 20260906022152 | 11 | 261 | 0.0 | 0.0 | 0.00 | 0.00 | 0.00 | 81 | 1024.8 |
| 20260906021648 | 11 | 261 | 0.0 | 0.0 | 0.00 | 0.00 | 0.00 | 81 | 1024.8 |
| 20260906021200 | 11 | 261 | 0.0 | 0.0 | 0.00 | 0.00 | 0.00 | 81 | 1023.9 |
| 20260906020702 | 11 | 261 | 0.0 | 0.0 | 0.00 | 0.00 | 0.00 | 81 | 1023.9 |
| 20260906020151 | 11 | 261 | 0.0 | 0.0 | 0.00 | 0.00 | 0.00 | 81 | 1023.9 |
| 20260906015654 | 11 | 261 | 0.0 | 0.0 | 0.00 | 0.00 | 0.00 | 81 | 1024.0 |
| 20260906015156 | 11 | 261 | 0.0 | 0.0 | 0.00 | 0.00 | 0.00 | 81 | 1024.0 |
| 20260906014647 | 11 | 261 | 0.0 | 0.0 | 0.00 | 0.00 | 0.00 | 81 | 1024.0 |
| 20260906014152 | 11 | 360 | 0.0 | 0.0 | 0.00 | 0.00 | 0.00 | 81 | 1023.9 |
| 20260906013653 | 11 | 261 | 0.0 | 0.0 | 0.00 | 0.00 | 0.00 | 81 | 1023.9 |
| 20260906013158 | 11 | 261 | 0.0 | 0.0 | 0.00 | 0.00 | 0.00 | 81 | 1023.9 |
| 20260906012652 | 11 | 261 | 0.0 | 0.0 | 0.00 | 0.00 | 0.00 | 81 | 1023.6 |
| 20260906012146 | 11 | 360 | 0.0 | 0.0 | 0.00 | 0.00 | 0.00 | 81 | 1023.6 |
| 20260906011658 | 11 | 360 | 0.0 | 0.0 | 0.00 | 0.00 | 0.00 | 81 | 1023.6 |
| 20260906011147 | 11 | 261 | 0.0 | 0.0 | 0.00 | 0.00 | 0.00 | 81 | 1024.5 |
| 20260906010648 | 11 | 261 | 0.0 | 0.0 | 0.00 | 0.00 | 0.00 | 81 | 1024.5 |
| 20260906010154 | 11 | 261 | 0.0 | 0.0 | 0.00 | 0.00 | 0.00 | 81 | 1024.5 |
| 20260906005655 | 11 | 261 | 0.0 | 0.0 | 0.00 | 0.00 | 0.00 | 81 | 1024.6 |
| 20260906005200 | 11 | 261 | 0.0 | 0.0 | 0.00 | 0.00 | 0.00 | 81 | 1024.6 |
| 20260906004703 | 12 | 261 | 0.0 | 0.0 | 0.00 | 0.00 | 0.00 | 81 | 1024.6 |
| 20260906004154 | 12 | 261 | 0.0 | 0.0 | 0.00 | 0.00 | 0.00 | 81 | 1024.7 |
| 20260906003702 | 12 | 261 | 0.0 | 0.0 | 0.00 | 0.00 | 0.00 | 81 | 1024.7 |
| 20260906003147 | 12 | 261 | 0.0 | 0.0 | 0.00 | 0.00 | 0.00 | 81 | 1024.7 |
| 20260906002651 | 12 | 261 | 0.0 | 0.0 | 0.00 | 0.00 | 0.00 | 81 | 1024.7 |
| 20260906002155 | 12 | 261 | 0.0 | 0.0 | 0.00 | 0.00 | 0.00 | 80 | 1024.7 |
| 20260906001659 | 12 | 261 | 0.0 | 0.0 | 0.00 | 0.00 | 0.00 | 80 | 1024.7 |
| 20260906001148 | 12 | 261 | 0.0 | 0.0 | 0.00 | 0.00 | 0.00 | 80 | 1023.9 |
| 20260906000655 | 12 | 261 | 0.0 | 0.0 | 0.00 | 0.00 | 0.00 | 80 | 1023.9 |
| 20260906000149 | 12 | 261 | 0.0 | 0.0 | 0.00 | 0.00 | 0.00 | 80 | 1023.9 |
| 20260905235654 | 12 | 261 | 0.0 | 0.0 | 0.00 | 0.00 | 0.00 | 80 | 1023.8 |
| 20260905235156 | 12 | 261 | 0.0 | 0.0 | 0.00 | 0.00 | 0.00 | 80 | 1023.8 |
| 20260905234704 | 12 | 261 | 0.0 | 0.0 | 0.00 | 0.00 | 0.00 | 80 | 1023.8 |
| 20260905234146 | 12 | 261 | 0.0 | 0.0 | 0.00 | 0.00 | 0.00 | 80 | 1023.8 |
| 20260905233649 | 12 | 261 | 0.0 | 0.0 | 0.00 | 0.00 | 0.00 | 80 | 1023.8 |
| 20260905233157 | 12 | 261 | 0.0 | 0.0 | 0.00 | 0.00 | 0.00 | 80 | 1023.8 |
| 20260905232704 | 12 | 261 | 0.0 | 0.0 | 0.00 | 0.00 | 0.00 | 80 | 1023.7 |
| 20260905232150 | 12 | 261 | 0.0 | 0.0 | 0.00 | 0.00 | 0.00 | 80 | 1023.7 |
| 20260905231655 | 12 | 261 | 0.0 | 0.0 | 0.00 | 0.00 | 0.00 | 80 | 1023.7 |
| 20260905231147 | 12 | 261 | 0.0 | 0.0 | 0.00 | 0.00 | 0.00 | 80 | 1024.1 |
| 20260905230702 | 12 | 262 | 0.0 | 0.0 | 0.00 | 0.00 | 0.00 | 80 | 1024.1 |
| 20260905230154 | 13 | 261 | 0.0 | 0.0 | 0.00 | 0.00 | 0.00 | 80 | 1024.1 |
| 20260905225705 | 13 | 360 | 0.0 | 0.0 | 0.00 | 0.00 | 0.00 | 80 | 1024.2 |
| 20260905225205 | 13 | 261 | 0.0 | 0.0 | 0.00 | 0.00 | 0.00 | 80 | 1024.2 |
| 20260905224647 | 13 | 267 | 0.0 | 0.0 | 0.00 | 0.00 | 0.00 | 80 | 1024.2 |
| 20260905224152 | 13 | 261 | 0.0 | 0.0 | 0.00 | 0.00 | 0.00 | 80 | 1024.0 |
| 20260905223657 | 13 | 261 | 0.0 | 0.0 | 0.00 | 0.00 | 0.00 | 80 | 1024.0 |
| 20260905223204 | 13 | 261 | 0.0 | 0.0 | 0.00 | 0.00 | 0.00 | 80 | 1024.0 |
| 20260905222701 | 13 | 261 | 0.0 | 0.0 | 0.00 | 0.00 | 0.00 | 80 | 1023.8 |
| 20260905222150 | 13 | 261 | 0.0 | 0.0 | 0.00 | 0.00 | 0.00 | 79 | 1023.8 |
| 20260905221656 | 13 | 261 | 0.0 | 0.0 | 0.00 | 0.00 | 0.00 | 79 | 1023.8 |
| 20260905221155 | 13 | 261 | 0.0 | 0.0 | 0.00 | 0.00 | 0.00 | 79 | 1024.1 |
| 20260905220704 | 13 | 261 | 0.0 | 0.0 | 0.00 | 0.00 | 0.00 | 79 | 1024.1 |
| 20260905220205 | 13 | 261 | 0.0 | 0.0 | 0.00 | 0.00 | 0.36 | 79 | 1024.1 |
| 20260905215654 | 13 | 261 | 0.0 | 0.0 | 0.00 | 0.00 | 0.36 | 79 | 1023.9 |
| 20260905215158 | 13 | 261 | 0.0 | 0.0 | 0.00 | 0.00 | 0.36 | 79 | 1023.9 |
| 20260905214704 | 14 | 261 | 0.0 | 0.0 | 0.00 | 0.00 | 0.36 | 79 | 1023.9 |
| 20260905214204 | 14 | 261 | 0.0 | 0.0 | 0.00 | 0.00 | 0.36 | 79 | 1023.9 |
| 20260905213703 | 14 | 261 | 0.0 | 0.0 | 0.00 | 0.00 | 0.36 | 79 | 1023.9 |
| 20260905213151 | 14 | 261 | 0.0 | 0.0 | 0.00 | 0.00 | 0.36 | 78 | 1023.9 |
| 20260905212653 | 14 | 261 | 0.0 | 0.0 | 0.00 | 0.00 | 0.36 | 78 | 1023.8 |
| 20260905212152 | 15 | 261 | 0.0 | 0.0 | 0.00 | 0.00 | 0.36 | 78 | 1023.8 |
| 20260905211653 | 15 | 360 | 0.0 | 0.0 | 0.00 | 0.00 | 0.36 | 77 | 1023.8 |
| 20260905211156 | 15 | 261 | 0.0 | 0.0 | 0.00 | 0.00 | 0.36 | 77 | 1023.7 |
| 20260905210657 | 15 | 261 | 0.0 | 0.0 | 0.00 | 0.00 | 0.36 | 77 | 1023.7 |
| 20260905210145 | 15 | 261 | 0.0 | 0.0 | 0.00 | 0.00 | 0.36 | 76 | 1023.7 |
| 20260905205653 | 15 | 261 | 0.0 | 0.0 | 0.00 | 0.00 | 0.36 | 76 | 1023.5 |
| 20260905205155 | 15 | 261 | 0.0 | 0.0 | 0.00 | 0.00 | 0.36 | 76 | 1023.5 |
| 20260905204704 | 15 | 261 | 0.0 | 0.0 | 0.00 | 0.00 | 0.36 | 76 | 1023.5 |
| 20260905204152 | 15 | 261 | 0.0 | 0.0 | 0.00 | 0.00 | 0.36 | 76 | 1023.4 |
| 20260905203650 | 15 | 261 | 0.0 | 0.0 | 0.00 | 0.00 | 0.36 | 76 | 1023.4 |
| 20260905203155 | 16 | 261 | 0.0 | 0.0 | 0.00 | 0.00 | 0.36 | 76 | 1023.4 |
| 20260905202704 | 16 | 261 | 0.0 | 0.0 | 0.00 | 0.00 | 0.36 | 75 | 1023.3 |
| 20260905202155 | 16 | 261 | 0.0 | 0.0 | 0.00 | 0.00 | 0.36 | 75 | 1023.3 |
| 20260905201647 | 16 | 261 | 0.0 | 0.0 | 0.00 | 0.00 | 0.36 | 75 | 1023.3 |
| 20260905201153 | 16 | 261 | 0.0 | 0.0 | 0.00 | 0.00 | 0.36 | 75 | 1023.0 |
| 20260905200702 | 16 | 261 | 0.0 | 0.0 | 0.00 | 0.00 | 0.36 | 75 | 1023.0 |
| 20260905200200 | 16 | 261 | 0.0 | 0.0 | 0.00 | 0.00 | 0.36 | 75 | 1023.0 |
| 20260905195703 | 16 | 261 | 0.0 | 0.0 | 0.00 | 0.00 | 0.36 | 75 | 1023.1 |
| 20260905195148 | 16 | 261 | 0.0 | 0.0 | 0.00 | 0.00 | 0.36 | 75 | 1023.1 |
| 20260905194654 | 16 | 261 | 0.0 | 0.0 | 0.00 | 0.00 | 0.36 | 74 | 1023.1 |
| 20260905194157 | 16 | 261 | 0.0 | 0.0 | 0.00 | 0.00 | 0.36 | 75 | 1023.0 |
| 20260905193656 | 17 | 261 | 0.0 | 0.0 | 0.00 | 0.00 | 0.36 | 75 | 1023.0 |
| 20260905193204 | 17 | 261 | 0.0 | 0.0 | 0.00 | 0.00 | 0.36 | 75 | 1023.0 |
| 20260905192659 | 17 | 261 | 0.0 | 0.0 | 0.00 | 0.00 | 0.36 | 74 | 1022.7 |
| 20260905192158 | 17 | 360 | 1.6 | 0.0 | 0.00 | 0.00 | 0.36 | 74 | 1022.7 |
| 20260905191644 | 17 | 261 | 1.6 | 0.0 | 0.00 | 0.00 | 0.36 | 73 | 1022.7 |
| 20260905191147 | 17 | 275 | 0.0 | 0.0 | 0.00 | 0.00 | 0.36 | 72 | 1023.3 |
| 20260905190653 | 17 | 276 | 0.0 | 0.0 | 0.00 | 0.00 | 0.36 | 72 | 1023.3 |
| 20260905190151 | 17 | 276 | 0.0 | 0.0 | 0.00 | 0.00 | 0.36 | 72 | 1023.3 |
| 20260905185659 | 17 | 276 | 0.0 | 0.0 | 0.00 | 0.00 | 0.36 | 71 | 1023.2 |
| 20260905185155 | 17 | 276 | 0.0 | 0.0 | 0.00 | 0.00 | 0.36 | 70 | 1023.2 |
| 20260905184653 | 18 | 276 | 0.0 | 0.0 | 0.00 | 0.00 | 0.36 | 70 | 1023.2 |
| 20260905184204 | 18 | 275 | 0.0 | 0.0 | 0.00 | 0.00 | 0.36 | 70 | 1022.8 |
| 20260905183657 | 18 | 302 | 0.0 | 0.0 | 0.00 | 0.00 | 0.36 | 69 | 1022.8 |
| 20260905183151 | 18 | 313 | 0.0 | 0.0 | 0.00 | 0.00 | 0.36 | 69 | 1022.8 |
| 20260905182645 | 18 | 302 | 0.0 | 0.0 | 0.00 | 0.00 | 0.36 | 68 | 1022.6 |
| 20260905182150 | 18 | 302 | 0.0 | 0.0 | 0.00 | 0.00 | 0.36 | 68 | 1022.6 |
| 20260905181659 | 18 | 360 | 0.0 | 0.0 | 0.00 | 0.00 | 0.36 | 67 | 1022.6 |
| 20260905181159 | 18 | 360 | 0.0 | 0.0 | 0.00 | 0.00 | 0.36 | 67 | 1022.2 |
| 20260905180651 | 18 | 236 | 0.0 | 0.0 | 0.00 | 0.00 | 0.36 | 67 | 1022.2 |
| 20260905180155 | 18 | 236 | 0.0 | 0.0 | 0.00 | 0.00 | 0.36 | 67 | 1022.2 |
| 20260905175703 | 18 | 235 | 0.0 | 0.0 | 0.00 | 0.00 | 0.36 | 66 | 1021.9 |
| 20260905175150 | 19 | 202 | 0.0 | 0.0 | 0.00 | 0.00 | 0.36 | 66 | 1021.9 |
| 20260905174654 | 19 | 260 | 0.0 | 0.0 | 0.00 | 0.00 | 0.36 | 66 | 1021.9 |
| 20260905174159 | 19 | 218 | 0.0 | 0.0 | 0.00 | 0.00 | 0.36 | 66 | 1021.8 |
| 20260905173656 | 19 | 180 | 0.0 | 0.0 | 0.00 | 0.00 | 0.36 | 65 | 1021.8 |
| 20260905173207 | 19 | 163 | 0.0 | 0.0 | 0.00 | 0.00 | 0.36 | 65 | 1021.8 |
| 20260905172649 | 20 | 360 | 0.0 | 0.0 | 0.00 | 0.00 | 0.36 | 64 | 1021.5 |
| 20260905172148 | 20 | 360 | 0.0 | 0.0 | 0.00 | 0.00 | 0.36 | 64 | 1021.5 |
| 20260905171657 | 20 | 169 | 1.6 | 0.0 | 0.00 | 0.00 | 0.36 | 63 | 1021.5 |
| 20260905171156 | 20 | 224 | 1.6 | 0.0 | 0.00 | 0.00 | 0.36 | 63 | 1021.3 |
| 20260905170654 | 20 | 264 | 1.6 | 0.0 | 0.00 | 0.00 | 0.36 | 62 | 1021.3 |
| 20260905170153 | 20 | 360 | 3.2 | 0.0 | 0.00 | 0.00 | 0.36 | 62 | 1021.3 |
| 20260905165657 | 20 | 231 | 3.2 | 0.0 | 0.00 | 0.00 | 0.36 | 62 | 1021.3 |
| 20260905165202 | 20 | 360 | 1.6 | 0.0 | 0.00 | 0.00 | 0.36 | 61 | 1021.3 |
| 20260905164701 | 20 | 186 | 1.6 | 0.0 | 0.00 | 0.00 | 0.36 | 61 | 1021.3 |
| 20260905164145 | 20 | 178 | 4.8 | 0.0 | 0.00 | 0.00 | 0.36 | 61 | 1021.0 |
| 20260905163707 | 21 | 360 | 4.8 | 0.0 | 0.00 | 0.00 | 0.36 | 60 | 1021.0 |
| 20260905163150 | 21 | 190 | 3.2 | 0.0 | 0.00 | 0.00 | 0.36 | 63 | 1021.0 |
| 20260905162650 | 21 | 153 | 3.2 | 0.0 | 0.00 | 0.00 | 0.36 | 64 | 1020.9 |
| 20260905162152 | 21 | 225 | 6.4 | 0.0 | 0.00 | 0.00 | 0.36 | 64 | 1020.9 |
| 20260905161655 | 21 | 360 | 6.4 | 0.0 | 0.00 | 0.00 | 0.36 | 65 | 1020.9 |
| 20260905161200 | 22 | 272 | 4.8 | 0.0 | 0.00 | 0.00 | 0.33 | 65 | 1021.4 |
| 20260905160706 | 22 | 146 | 3.2 | 0.0 | 0.00 | 0.00 | 0.33 | 65 | 1021.4 |
| 20260905160149 | 22 | 171 | 3.2 | 0.0 | 0.00 | 0.00 | 0.33 | 64 | 1021.4 |
| 20260905155654 | 22 | 184 | 3.2 | 0.0 | 0.00 | 0.00 | 0.33 | 64 | 1021.2 |
| 20260905155158 | 22 | 195 | 1.6 | 0.0 | 0.00 | 0.00 | 0.33 | 63 | 1021.2 |
| 20260905154702 | 23 | 175 | 1.6 | 0.0 | 0.00 | 0.00 | 0.33 | 62 | 1021.2 |
| 20260905154148 | 23 | 163 | 1.6 | 0.0 | 0.00 | 0.00 | 0.33 | 62 | 1021.3 |
| 20260905153659 | 23 | 227 | 3.2 | 0.0 | 0.00 | 0.00 | 0.33 | 62 | 1021.3 |
| 20260905153145 | 23 | 360 | 3.2 | 0.0 | 0.00 | 0.00 | 0.33 | 60 | 1021.3 |
| 20260905152654 | 23 | 360 | 4.8 | 0.0 | 0.00 | 0.00 | 0.33 | 59 | 1021.2 |
| 20260905152203 | 23 | 256 | 4.8 | 0.0 | 0.00 | 0.00 | 0.33 | 57 | 1021.2 |
| 20260905151652 | 23 | 234 | 3.2 | 0.0 | 0.00 | 0.00 | 0.33 | 58 | 1021.2 |
| 20260905151154 | 23 | 360 | 4.8 | 0.0 | 0.00 | 0.00 | 0.33 | 58 | 1021.1 |
| 20260905150702 | 23 | 217 | 6.4 | 0.0 | 0.00 | 0.00 | 0.33 | 57 | 1021.1 |
| 20260905150151 | 23 | 360 | 4.8 | 0.0 | 0.00 | 0.00 | 0.33 | 56 | 1021.1 |
| 20260905145702 | 23 | 360 | 6.4 | 0.0 | 0.00 | 0.00 | 0.33 | 55 | 1021.3 |
| 20260905145150 | 23 | 221 | 4.8 | 0.0 | 0.00 | 0.00 | 0.33 | 55 | 1021.3 |
| 20260905144655 | 23 | 183 | 3.2 | 0.0 | 0.00 | 0.00 | 0.33 | 56 | 1021.3 |
| 20260905144204 | 22 | 234 | 9.7 | 0.0 | 0.00 | 0.00 | 0.33 | 56 | 1021.5 |
| 20260905143644 | 22 | 198 | 11.3 | 0.0 | 0.00 | 0.00 | 0.33 | 57 | 1021.5 |
| 20260905143145 | 22 | 360 | 9.7 | 0.0 | 0.00 | 0.00 | 0.33 | 55 | 1021.5 |
| 20260905142653 | 22 | 360 | 9.7 | 0.0 | 0.00 | 0.00 | 0.33 | 55 | 1021.5 |
| 20260905142158 | 22 | 254 | 9.7 | 0.0 | 0.00 | 0.00 | 0.33 | 55 | 1021.5 |
| 20260905141700 | 22 | 286 | 9.7 | 0.0 | 0.00 | 0.00 | 0.33 | 57 | 1021.5 |
| 20260905141151 | 22 | 279 | 9.7 | 0.0 | 0.00 | 0.00 | 0.33 | 58 | 1021.4 |
| 20260905140653 | 22 | 302 | 9.7 | 0.0 | 0.00 | 0.00 | 0.33 | 58 | 1021.4 |
| 20260905140159 | 22 | 288 | 11.3 | 0.0 | 0.00 | 0.00 | 0.33 | 56 | 1021.4 |
| 20260905135645 | 22 | 229 | 11.3 | 0.0 | 0.00 | 0.00 | 0.33 | 53 | 1021.6 |
| 20260905135154 | 22 | 360 | 11.3 | 0.0 | 0.00 | 0.00 | 0.33 | 56 | 1021.6 |
| 20260905134659 | 21 | 290 | 11.3 | 0.0 | 0.00 | 0.00 | 0.33 | 56 | 1021.6 |
| 20260905134202 | 22 | 268 | 9.7 | 0.0 | 0.00 | 0.00 | 0.33 | 57 | 1021.5 |
| 20260905133705 | 22 | 288 | 9.7 | 0.0 | 0.00 | 0.00 | 0.33 | 53 | 1021.5 |